Time,TemperatureF,DewpointF,PressureIn,WindDirection,WindDirectionDegrees,WindSpeedMPH,WindSpeedGustMPH,Humidity,HourlyPrecipIn,Conditions,Clouds,dailyrainin,SoftwareType,DateUTC
2013-02-01 06:19:00,77.6,77.3,29.74,ESE,108,0.0,0.0,99,0.00,,,0.00,Wunderground v.1.15,2013-01-31 20:19:00,
2013-02-01 06:32:00,77.8,77.5,29.75,ESE,107,1.0,1.0,99,0.00,,,0.00,Wunderground v.1.15,2013-01-31 20:32:00,
2013-02-01 06:38:00,78.0,77.7,29.75,ESE,107,0.0,0.0,99,0.00,,,0.00,Wunderground v.1.15,2013-01-31 20:38:00,
2013-02-01 06:43:00,78.2,77.9,29.75,ESE,107,0.0,0.0,99,0.00,,,0.00,Wunderground v.1.15,2013-01-31 20:43:00,
2013-02-01 06:48:00,78.8,78.8,29.75,ESE,108,0.0,0.0,100,0.00,,,0.00,Wunderground v.1.15,2013-01-31 20:48:00,
2013-02-01 06:54:00,79.4,79.4,29.75,ESE,108,0.0,0.0,100,0.00,,,0.00,Wunderground v.1.15,2013-01-31 20:54:00,
2013-02-01 06:59:00,80.0,80.0,29.75,ESE,108,0.0,0.0,100,0.00,,,0.00,Wunderground v.1.15,2013-01-31 20:59:00,
2013-02-01 07:04:00,79.8,79.2,29.75,ESE,108,1.0,1.0,98,0.00,,,0.00,Wunderground v.1.15,2013-01-31 21:04:00,
2013-02-01 07:09:00,80.1,79.5,29.75,ESE,107,0.0,2.0,98,0.00,,,0.00,Wunderground v.1.15,2013-01-31 21:09:00,
2013-02-01 07:14:00,80.8,80.2,29.75,ESE,107,0.0,1.0,98,0.00,,,0.00,Wunderground v.1.15,2013-01-31 21:14:00,
2013-02-01 07:19:00,81.7,80.1,29.75,ESE,107,0.0,1.0,95,0.00,,,0.00,Wunderground v.1.15,2013-01-31 21:19:00,
2013-02-01 07:24:00,82.3,80.1,29.75,ESE,107,1.0,1.0,93,0.00,,,0.00,Wunderground v.1.15,2013-01-31 21:24:00,
2013-02-01 07:29:00,82.9,80.0,29.75,ESE,109,1.0,2.0,91,0.00,,,0.00,Wunderground v.1.15,2013-01-31 21:29:00,
2013-02-01 07:34:00,83.3,79.4,29.75,ESE,109,1.0,3.0,88,0.00,,,0.00,Wunderground v.1.15,2013-01-31 21:34:00,
2013-02-01 07:39:00,83.7,79.4,29.76,ESE,109,0.0,3.0,87,0.00,,,0.00,Wunderground v.1.15,2013-01-31 21:39:00,
2013-02-01 07:44:00,84.1,79.8,29.76,ESE,108,0.0,2.0,87,0.00,,,0.00,Wunderground v.1.15,2013-01-31 21:44:00,
2013-02-01 07:49:00,84.4,80.1,29.76,ESE,108,1.0,4.0,87,0.00,,,0.00,Wunderground v.1.15,2013-01-31 21:49:00,
2013-02-01 07:54:00,84.6,79.2,29.76,ESE,108,2.0,3.0,84,0.00,,,0.00,Wunderground v.1.15,2013-01-31 21:54:00,
2013-02-01 07:59:00,85.0,79.6,29.77,ESE,108,2.0,3.0,84,0.00,,,0.00,Wunderground v.1.15,2013-01-31 21:59:00,
2013-02-01 08:04:00,85.6,79.5,29.77,ESE,109,2.0,3.0,82,0.00,,,0.00,Wunderground v.1.15,2013-01-31 22:04:00,
2013-02-01 08:09:00,85.8,79.7,29.77,ESE,108,1.0,3.0,82,0.00,,,0.00,Wunderground v.1.15,2013-01-31 22:09:00,
2013-02-01 08:14:00,86.0,80.2,29.77,ESE,108,2.0,3.0,83,0.00,,,0.00,Wunderground v.1.15,2013-01-31 22:14:00,
2013-02-01 08:19:00,86.2,79.7,29.77,ESE,109,1.0,4.0,81,0.00,,,0.00,Wunderground v.1.15,2013-01-31 22:19:00,
2013-02-01 08:24:00,86.2,79.7,29.77,ESE,109,0.0,3.0,81,0.00,,,0.00,Wunderground v.1.15,2013-01-31 22:24:00,
2013-02-01 08:29:00,86.3,79.8,29.77,ESE,106,0.0,3.0,81,0.00,,,0.00,Wunderground v.1.15,2013-01-31 22:29:00,
2013-02-01 08:34:00,86.8,79.9,29.78,ESE,104,0.0,2.0,80,0.00,,,0.00,Wunderground v.1.15,2013-01-31 22:34:00,
2013-02-01 08:39:00,87.4,80.1,29.78,ESE,103,2.0,2.0,79,0.00,,,0.00,Wunderground v.1.15,2013-01-31 22:39:00,
2013-02-01 08:44:00,88.1,79.6,29.78,ESE,103,1.0,3.0,76,0.00,,,0.00,Wunderground v.1.15,2013-01-31 22:44:00,
2013-02-01 08:49:00,87.7,80.0,29.78,ESE,106,0.0,3.0,78,0.00,,,0.00,Wunderground v.1.15,2013-01-31 22:49:00,
2013-02-01 08:54:00,88.2,80.5,29.78,ESE,106,0.0,1.0,78,0.00,,,0.00,Wunderground v.1.15,2013-01-31 22:54:00,
2013-02-01 08:59:00,88.6,80.5,29.78,ESE,104,1.0,1.0,77,0.00,,,0.00,Wunderground v.1.15,2013-01-31 22:59:00,
2013-02-01 09:04:00,89.0,80.8,29.78,ESE,105,1.0,2.0,77,0.00,,,0.00,Wunderground v.1.15,2013-01-31 23:04:00,
2013-02-01 09:09:00,89.4,79.6,29.78,ESE,104,0.0,2.0,73,0.00,,,0.00,Wunderground v.1.15,2013-01-31 23:09:00,
2013-02-01 09:14:00,90.1,80.3,29.78,ESE,104,2.0,3.0,73,0.00,,,0.00,Wunderground v.1.15,2013-01-31 23:14:00,
2013-02-01 09:19:00,90.1,79.8,29.78,ESE,105,0.0,3.0,72,0.00,,,0.00,Wunderground v.1.15,2013-01-31 23:19:00,
2013-02-01 09:24:00,90.4,78.8,29.78,ESE,104,2.0,3.0,69,0.00,,,0.00,Wunderground v.1.15,2013-01-31 23:24:00,
2013-02-01 09:29:00,90.6,79.5,29.78,ESE,104,3.0,4.0,70,0.00,,,0.00,Wunderground v.1.15,2013-01-31 23:29:00,
2013-02-01 09:34:00,91.1,79.5,29.78,ESE,104,2.0,4.0,69,0.00,,,0.00,Wunderground v.1.15,2013-01-31 23:34:00,
2013-02-01 09:39:00,91.4,79.3,29.78,ESE,104,2.0,4.0,68,0.00,,,0.00,Wunderground v.1.15,2013-01-31 23:39:00,
2013-02-01 09:44:00,91.2,80.5,29.77,ESE,104,0.0,1.0,71,0.00,,,0.00,Wunderground v.1.15,2013-01-31 23:44:00,
2013-02-01 09:49:00,91.9,80.3,29.77,ESE,104,0.0,2.0,69,0.00,,,0.00,Wunderground v.1.15,2013-01-31 23:49:00,
2013-02-01 09:54:00,92.8,77.9,29.78,ESE,104,1.0,3.0,62,0.00,,,0.00,Wunderground v.1.15,2013-01-31 23:54:00,
2013-02-01 09:59:00,94.0,77.5,29.78,ESE,104,2.0,5.0,59,0.00,,,0.00,Wunderground v.1.15,2013-01-31 23:59:00,
2013-02-01 10:04:00,93.3,78.3,29.77,ESE,104,0.0,4.0,62,0.00,,,0.00,Wunderground v.1.15,2013-02-01 00:04:00,
2013-02-01 10:09:00,92.9,77.5,29.77,ESE,105,1.0,5.0,61,0.00,,,0.00,Wunderground v.1.15,2013-02-01 00:09:00,
2013-02-01 10:14:00,92.0,78.5,29.77,ESE,104,2.0,5.0,65,0.00,,,0.00,Wunderground v.1.15,2013-02-01 00:14:00,
2013-02-01 10:20:00,92.5,79.5,29.77,ESE,105,3.0,5.0,66,0.00,,,0.00,Wunderground v.1.15,2013-02-01 00:20:00,
2013-02-01 10:25:00,92.8,78.3,29.77,ESE,104,0.0,4.0,63,0.00,,,0.00,Wunderground v.1.15,2013-02-01 00:25:00,
2013-02-01 10:30:00,94.4,79.4,29.76,ESE,104,1.0,1.0,62,0.00,,,0.00,Wunderground v.1.15,2013-02-01 00:30:00,
2013-02-01 10:35:00,95.4,77.2,29.76,ESE,105,1.0,3.0,56,0.00,,,0.00,Wunderground v.1.15,2013-02-01 00:35:00,
2013-02-01 10:40:00,95.0,76.3,29.76,ESE,105,2.0,2.0,55,0.00,,,0.00,Wunderground v.1.15,2013-02-01 00:40:00,
2013-02-01 10:45:00,95.3,77.1,29.76,ESE,104,2.0,3.0,56,0.00,,,0.00,Wunderground v.1.15,2013-02-01 00:45:00,
2013-02-01 10:50:00,95.4,77.7,29.76,ESE,104,2.0,2.0,57,0.00,,,0.00,Wunderground v.1.15,2013-02-01 00:50:00,
2013-02-01 10:55:00,95.8,77.6,29.76,ESE,104,1.0,3.0,56,0.00,,,0.00,Wunderground v.1.15,2013-02-01 00:55:00,
2013-02-01 11:00:00,96.1,78.9,29.75,ESE,104,0.0,1.0,58,0.00,,,0.00,Wunderground v.1.15,2013-02-01 01:00:00,
2013-02-01 11:05:00,96.7,77.3,29.75,ESE,104,0.0,3.0,54,0.00,,,0.00,Wunderground v.1.15,2013-02-01 01:05:00,
2013-02-01 11:10:00,97.1,77.7,29.75,ESE,104,2.0,2.0,54,0.00,,,0.00,Wunderground v.1.15,2013-02-01 01:10:00,
2013-02-01 11:15:00,97.4,76.8,29.75,ESE,104,3.0,4.0,52,0.00,,,0.00,Wunderground v.1.15,2013-02-01 01:15:00,
2013-02-01 11:20:00,97.6,77.0,29.75,ESE,104,4.0,4.0,52,0.00,,,0.00,Wunderground v.1.15,2013-02-01 01:20:00,
2013-02-01 11:25:00,97.0,75.9,29.74,ESE,104,0.0,6.0,51,0.00,,,0.00,Wunderground v.1.15,2013-02-01 01:25:00,
2013-02-01 11:30:00,97.9,77.9,29.74,ESE,104,1.0,2.0,53,0.00,,,0.00,Wunderground v.1.15,2013-02-01 01:30:00,
2013-02-01 11:35:00,98.7,76.8,29.74,ESE,104,1.0,5.0,50,0.00,,,0.00,Wunderground v.1.15,2013-02-01 01:35:00,
2013-02-01 11:40:00,97.5,75.7,29.74,ESE,104,2.0,3.0,50,0.00,,,0.00,Wunderground v.1.15,2013-02-01 01:40:00,
2013-02-01 11:45:00,97.5,78.6,29.73,ESE,105,3.0,6.0,55,0.00,,,0.00,Wunderground v.1.15,2013-02-01 01:45:00,
2013-02-01 11:50:00,98.8,76.9,29.73,ESE,104,3.0,7.0,50,0.00,,,0.00,Wunderground v.1.15,2013-02-01 01:50:00,
2013-02-01 11:55:00,98.8,79.8,29.73,ESE,104,3.0,7.0,55,0.00,,,0.00,Wunderground v.1.15,2013-02-01 01:55:00,
2013-02-01 12:00:00,97.9,80.6,29.72,ESE,105,4.0,4.0,58,0.00,,,0.00,Wunderground v.1.15,2013-02-01 02:00:00,
2013-02-01 12:05:00,97.5,81.8,29.72,ESE,104,2.0,7.0,61,0.00,,,0.00,Wunderground v.1.15,2013-02-01 02:05:00,
2013-02-01 12:10:00,96.7,81.5,29.72,ESE,105,1.0,2.0,62,0.00,,,0.00,Wunderground v.1.15,2013-02-01 02:10:00,
2013-02-01 12:15:00,95.6,81.9,29.72,ESE,104,2.0,8.0,65,0.00,,,0.00,Wunderground v.1.15,2013-02-01 02:15:00,
2013-02-01 12:20:00,94.9,79.8,29.71,ESE,105,2.0,3.0,62,0.00,,,0.00,Wunderground v.1.15,2013-02-01 02:20:00,
2013-02-01 12:25:00,95.4,81.8,29.71,ESE,105,2.0,5.0,65,0.00,,,0.00,Wunderground v.1.15,2013-02-01 02:25:00,
2013-02-01 12:30:00,95.1,81.5,29.71,ESE,104,1.0,2.0,65,0.00,,,0.00,Wunderground v.1.15,2013-02-01 02:30:00,
2013-02-01 12:35:00,95.5,81.9,29.70,ESE,104,1.0,8.0,65,0.00,,,0.00,Wunderground v.1.15,2013-02-01 02:35:00,
2013-02-01 12:40:00,95.5,80.4,29.70,ESE,105,4.0,6.0,62,0.00,,,0.00,Wunderground v.1.15,2013-02-01 02:40:00,
2013-02-01 12:45:00,94.8,81.2,29.70,ESE,104,3.0,7.0,65,0.00,,,0.00,Wunderground v.1.15,2013-02-01 02:45:00,
2013-02-01 12:50:00,95.2,82.0,29.70,ESE,104,2.0,3.0,66,0.00,,,0.00,Wunderground v.1.15,2013-02-01 02:50:00,
2013-02-01 12:55:00,95.0,81.9,29.69,ESE,104,1.0,7.0,66,0.00,,,0.00,Wunderground v.1.15,2013-02-01 02:55:00,
2013-02-01 13:01:00,95.5,82.8,29.69,ESE,105,3.0,3.0,67,0.00,,,0.00,Wunderground v.1.15,2013-02-01 03:01:00,
2013-02-01 13:06:00,95.5,82.8,29.69,ESE,104,1.0,9.0,67,0.00,,,0.00,Wunderground v.1.15,2013-02-01 03:06:00,
2013-02-01 13:11:00,95.4,82.7,29.69,ESE,104,3.0,10.0,67,0.00,,,0.00,Wunderground v.1.15,2013-02-01 03:11:00,
2013-02-01 13:16:00,94.7,82.5,29.68,ESE,105,4.0,10.0,68,0.00,,,0.00,Wunderground v.1.15,2013-02-01 03:16:00,
2013-02-01 13:21:00,93.7,82.0,29.68,ESE,103,5.0,6.0,69,0.00,,,0.00,Wunderground v.1.15,2013-02-01 03:21:00,
2013-02-01 13:26:00,93.7,82.9,29.68,ESE,105,3.0,6.0,71,0.00,,,0.00,Wunderground v.1.15,2013-02-01 03:26:00,
2013-02-01 13:31:00,93.5,82.2,29.68,ESE,103,5.0,11.0,70,0.00,,,0.00,Wunderground v.1.15,2013-02-01 03:31:00,
2013-02-01 13:36:00,93.1,82.3,29.68,ESE,105,3.0,11.0,71,0.00,,,0.00,Wunderground v.1.15,2013-02-01 03:36:00,
2013-02-01 13:41:00,93.0,82.6,29.67,ESE,103,1.0,9.0,72,0.00,,,0.00,Wunderground v.1.15,2013-02-01 03:41:00,
2013-02-01 13:46:00,93.3,82.9,29.67,ESE,103,2.0,9.0,72,0.00,,,0.00,Wunderground v.1.15,2013-02-01 03:46:00,
2013-02-01 13:51:00,93.0,82.2,29.67,ESE,103,2.0,5.0,71,0.00,,,0.00,Wunderground v.1.15,2013-02-01 03:51:00,
2013-02-01 13:56:00,92.9,82.5,29.67,ESE,103,2.0,12.0,72,0.00,,,0.00,Wunderground v.1.15,2013-02-01 03:56:00,
2013-02-01 14:01:00,93.1,82.3,29.67,ESE,103,0.0,3.0,71,0.00,,,0.00,Wunderground v.1.15,2013-02-01 04:01:00,
2013-02-01 14:06:00,92.6,81.8,29.67,ESE,103,4.0,11.0,71,0.00,,,0.00,Wunderground v.1.15,2013-02-01 04:06:00,
2013-02-01 14:11:00,93.0,83.1,29.67,ESE,103,2.0,4.0,73,0.00,,,0.00,Wunderground v.1.15,2013-02-01 04:11:00,
2013-02-01 14:16:00,93.7,82.4,29.67,ESE,103,2.0,6.0,70,0.00,,,0.00,Wunderground v.1.15,2013-02-01 04:16:00,
2013-02-01 14:21:00,93.4,82.6,29.67,ESE,103,2.0,4.0,71,0.00,,,0.00,Wunderground v.1.15,2013-02-01 04:21:00,
2013-02-01 14:26:00,92.9,82.1,29.67,ESE,103,3.0,5.0,71,0.00,,,0.00,Wunderground v.1.15,2013-02-01 04:26:00,
2013-02-01 14:31:00,92.5,82.2,29.66,ESE,104,2.0,5.0,72,0.00,,,0.00,Wunderground v.1.15,2013-02-01 04:31:00,
2013-02-01 14:36:00,92.7,82.3,29.66,ESE,103,1.0,7.0,72,0.00,,,0.00,Wunderground v.1.15,2013-02-01 04:36:00,
2013-02-01 14:41:00,92.8,82.0,29.66,ESE,103,1.0,6.0,71,0.00,,,0.00,Wunderground v.1.15,2013-02-01 04:41:00,
2013-02-01 14:46:00,93.0,82.6,29.66,ESE,103,1.0,6.0,72,0.00,,,0.00,Wunderground v.1.15,2013-02-01 04:46:00,
2013-02-01 14:51:00,93.1,82.3,29.65,ESE,103,1.0,6.0,71,0.00,,,0.00,Wunderground v.1.15,2013-02-01 04:51:00,
2013-02-01 14:56:00,92.6,82.2,29.65,ESE,103,3.0,6.0,72,0.00,,,0.00,Wunderground v.1.15,2013-02-01 04:56:00,
2013-02-01 15:00:00,92.6,82.2,29.65,ESE,103,2.0,6.0,72,0.00,,,0.00,Wunderground v.1.15,2013-02-01 05:00:00,
2013-02-01 15:01:00,92.6,82.2,29.65,ESE,103,2.0,3.0,72,0.00,,,0.00,Wunderground v.1.15,2013-02-01 05:01:00,
2013-02-01 15:03:00,92.8,82.4,29.65,ESE,104,4.0,6.0,72,0.00,,,0.00,Wunderground v.1.15,2013-02-01 05:03:00,
2013-02-01 15:08:00,92.5,82.2,29.65,ESE,103,2.0,8.0,72,0.00,,,0.00,Wunderground v.1.15,2013-02-01 05:08:00,
2013-02-01 15:13:00,92.6,82.2,29.65,ESE,103,2.0,5.0,72,0.00,,,0.00,Wunderground v.1.15,2013-02-01 05:13:00,
2013-02-01 15:18:00,92.8,82.4,29.65,ESE,103,2.0,7.0,72,0.00,,,0.00,Wunderground v.1.15,2013-02-01 05:18:00,
2013-02-01 15:23:00,92.7,82.8,29.65,ESE,103,0.0,4.0,73,0.00,,,0.00,Wunderground v.1.15,2013-02-01 05:23:00,
2013-02-01 15:28:00,93.0,82.6,29.65,ESE,103,3.0,4.0,72,0.00,,,0.00,Wunderground v.1.15,2013-02-01 05:28:00,
2013-02-01 15:33:00,93.1,82.7,29.65,ESE,103,0.0,3.0,72,0.00,,,0.00,Wunderground v.1.15,2013-02-01 05:33:00,
2013-02-01 15:38:00,93.9,82.6,29.64,ESE,103,2.0,4.0,70,0.00,,,0.00,Wunderground v.1.15,2013-02-01 05:38:00,
2013-02-01 15:43:00,93.4,82.6,29.64,ESE,103,2.0,6.0,71,0.00,,,0.00,Wunderground v.1.15,2013-02-01 05:43:00,
2013-02-01 15:48:00,93.0,82.6,29.65,ESE,103,1.0,9.0,72,0.00,,,0.00,Wunderground v.1.15,2013-02-01 05:48:00,
2013-02-01 15:53:00,92.7,82.3,29.65,ESE,103,2.0,6.0,72,0.00,,,0.00,Wunderground v.1.15,2013-02-01 05:53:00,
2013-02-01 15:58:00,92.7,82.3,29.65,ESE,103,2.0,6.0,72,0.00,,,0.00,Wunderground v.1.15,2013-02-01 05:58:00,
2013-02-01 16:03:00,92.4,82.5,29.65,ESE,103,2.0,6.0,73,0.00,,,0.00,Wunderground v.1.15,2013-02-01 06:03:00,
2013-02-01 16:08:00,91.7,82.2,29.65,ESE,105,2.0,10.0,74,0.00,,,0.00,Wunderground v.1.15,2013-02-01 06:08:00,
2013-02-01 16:13:00,91.5,81.6,29.65,ESE,105,2.0,8.0,73,0.00,,,0.00,Wunderground v.1.15,2013-02-01 06:13:00,
2013-02-01 16:18:00,91.0,82.0,29.65,ESE,105,2.0,8.0,75,0.00,,,0.00,Wunderground v.1.15,2013-02-01 06:18:00,
2013-02-01 16:23:00,90.7,82.1,29.66,ESE,104,3.0,7.0,76,0.00,,,0.00,Wunderground v.1.15,2013-02-01 06:23:00,
2013-02-01 16:28:00,90.7,82.5,29.65,ESE,104,0.0,7.0,77,0.00,,,0.00,Wunderground v.1.15,2013-02-01 06:28:00,
2013-02-01 16:33:00,90.7,82.1,29.66,ESE,104,5.0,5.0,76,0.00,,,0.00,Wunderground v.1.15,2013-02-01 06:33:00,
2013-02-01 16:38:00,89.9,81.3,29.66,ESE,104,2.0,5.0,76,0.00,,,0.00,Wunderground v.1.15,2013-02-01 06:38:00,
2013-02-01 16:44:00,90.0,81.4,29.66,ESE,104,3.0,7.0,76,0.00,,,0.00,Wunderground v.1.15,2013-02-01 06:44:00,
2013-02-01 16:49:00,90.7,82.1,29.66,ESE,104,2.0,7.0,76,0.00,,,0.00,Wunderground v.1.15,2013-02-01 06:49:00,
2013-02-01 16:54:00,90.4,81.8,29.66,ESE,104,1.0,7.0,76,0.00,,,0.00,Wunderground v.1.15,2013-02-01 06:54:00,
2013-02-01 16:59:00,89.6,81.4,29.66,ESE,105,1.0,7.0,77,0.00,,,0.00,Wunderground v.1.15,2013-02-01 06:59:00,
2013-02-01 17:04:00,89.0,81.2,29.66,ESE,105,1.0,4.0,78,0.00,,,0.00,Wunderground v.1.15,2013-02-01 07:04:00,
2013-02-01 17:09:00,88.2,80.9,29.67,ESE,105,1.0,6.0,79,0.00,,,0.00,Wunderground v.1.15,2013-02-01 07:09:00,
2013-02-01 17:14:00,87.7,81.1,29.67,ESE,104,1.0,8.0,81,0.00,,,0.00,Wunderground v.1.15,2013-02-01 07:14:00,
2013-02-01 17:19:00,87.6,81.0,29.67,ESE,105,0.0,8.0,81,0.00,,,0.00,Wunderground v.1.15,2013-02-01 07:19:00,
2013-02-01 17:24:00,87.7,81.1,29.67,ESE,106,3.0,4.0,81,0.00,,,0.00,Wunderground v.1.15,2013-02-01 07:24:00,
2013-02-01 17:29:00,87.4,80.8,29.67,ESE,106,1.0,7.0,81,0.00,,,0.00,Wunderground v.1.15,2013-02-01 07:29:00,
2013-02-01 17:34:00,87.1,80.9,29.67,ESE,106,2.0,3.0,82,0.00,,,0.00,Wunderground v.1.15,2013-02-01 07:34:00,
2013-02-01 17:39:00,86.8,80.6,29.67,ESE,106,1.0,3.0,82,0.00,,,0.00,Wunderground v.1.15,2013-02-01 07:39:00,
2013-02-01 17:44:00,86.6,80.4,29.67,ESE,106,1.0,4.0,82,0.00,,,0.00,Wunderground v.1.15,2013-02-01 07:44:00,
2013-02-01 17:49:00,86.6,80.8,29.67,ESE,105,2.0,4.0,83,0.00,,,0.00,Wunderground v.1.15,2013-02-01 07:49:00,
2013-02-01 17:54:00,86.5,80.7,29.67,ESE,107,1.0,3.0,83,0.00,,,0.00,Wunderground v.1.15,2013-02-01 07:54:00,
2013-02-01 17:59:00,86.4,81.0,29.67,ESE,108,1.0,3.0,84,0.00,,,0.00,Wunderground v.1.15,2013-02-01 07:59:00,
2013-02-01 18:04:00,86.2,80.8,29.67,ESE,108,1.0,4.0,84,0.00,,,0.00,Wunderground v.1.15,2013-02-01 08:04:00,
2013-02-01 18:09:00,86.2,81.2,29.67,ESE,108,4.0,4.0,85,0.00,,,0.00,Wunderground v.1.15,2013-02-01 08:09:00,
2013-02-01 18:14:00,86.1,80.7,29.67,ESE,109,2.0,6.0,84,0.00,,,0.00,Wunderground v.1.15,2013-02-01 08:14:00,
2013-02-01 18:19:00,86.0,80.6,29.67,ESE,109,0.0,6.0,84,0.00,,,0.00,Wunderground v.1.15,2013-02-01 08:19:00,
2013-02-01 18:24:00,85.9,80.9,29.67,ESE,109,0.0,2.0,85,0.00,,,0.00,Wunderground v.1.15,2013-02-01 08:24:00,
2013-02-01 18:29:00,85.8,80.8,29.67,ESE,109,3.0,3.0,85,0.00,,,0.00,Wunderground v.1.15,2013-02-01 08:29:00,
2013-02-01 18:34:00,85.7,80.7,29.68,ESE,109,0.0,4.0,85,0.00,,,0.00,Wunderground v.1.15,2013-02-01 08:34:00,
2013-02-01 18:39:00,85.6,80.6,29.68,ESE,109,0.0,4.0,85,0.00,,,0.00,Wunderground v.1.15,2013-02-01 08:39:00,
2013-02-01 18:44:00,85.5,80.8,29.68,ESE,109,0.0,3.0,86,0.00,,,0.00,Wunderground v.1.15,2013-02-01 08:44:00,
2013-02-01 18:50:00,85.3,80.3,29.68,ESE,109,1.0,3.0,85,0.00,,,0.00,Wunderground v.1.15,2013-02-01 08:50:00,
2013-02-01 18:55:00,85.3,80.6,29.69,ESE,109,0.0,3.0,86,0.00,,,0.00,Wunderground v.1.15,2013-02-01 08:55:00,
2013-02-01 19:00:00,85.2,80.5,29.69,ESE,109,1.0,3.0,86,0.00,,,0.00,Wunderground v.1.15,2013-02-01 09:00:00,
2013-02-01 19:05:00,85.1,80.4,29.69,ESE,108,0.0,2.0,86,0.00,,,0.00,Wunderground v.1.15,2013-02-01 09:05:00,
2013-02-01 19:10:00,85.1,80.4,29.69,ESE,109,0.0,2.0,86,0.00,,,0.00,Wunderground v.1.15,2013-02-01 09:10:00,
2013-02-01 19:15:00,85.0,80.3,29.69,ESE,108,0.0,2.0,86,0.00,,,0.00,Wunderground v.1.15,2013-02-01 09:15:00,
2013-02-01 19:20:00,84.9,80.2,29.69,ESE,109,1.0,1.0,86,0.00,,,0.00,Wunderground v.1.15,2013-02-01 09:20:00,
2013-02-01 19:25:00,85.0,80.3,29.69,ESE,109,0.0,1.0,86,0.00,,,0.00,Wunderground v.1.15,2013-02-01 09:25:00,
2013-02-01 19:30:00,84.9,80.6,29.70,ESE,108,0.0,0.0,87,0.00,,,0.00,Wunderground v.1.15,2013-02-01 09:30:00,
2013-02-01 19:35:00,84.6,79.9,29.70,ESE,109,0.0,1.0,86,0.00,,,0.00,Wunderground v.1.15,2013-02-01 09:35:00,
2013-02-01 19:40:00,84.4,79.7,29.70,ESE,109,0.0,0.0,86,0.00,,,0.00,Wunderground v.1.15,2013-02-01 09:40:00,
2013-02-01 19:45:00,84.2,79.6,29.70,ESE,108,0.0,0.0,86,0.00,,,0.00,Wunderground v.1.15,2013-02-01 09:45:00,
2013-02-01 19:50:00,83.9,79.6,29.70,ESE,109,0.0,0.0,87,0.00,,,0.00,Wunderground v.1.15,2013-02-01 09:50:00,
2013-02-01 19:55:00,83.7,79.4,29.71,ESE,108,0.0,0.0,87,0.00,,,0.00,Wunderground v.1.15,2013-02-01 09:55:00,
2013-02-01 20:00:00,83.6,79.7,29.71,ESE,108,0.0,0.0,88,0.00,,,0.00,Wunderground v.1.15,2013-02-01 10:00:00,
2013-02-01 20:05:00,83.5,79.6,29.71,ESE,109,0.0,1.0,88,0.00,,,0.00,Wunderground v.1.15,2013-02-01 10:05:00,
2013-02-01 20:10:00,83.6,79.7,29.71,ESE,109,0.0,0.0,88,0.00,,,0.00,Wunderground v.1.15,2013-02-01 10:10:00,
2013-02-01 20:15:00,83.6,79.7,29.71,ESE,109,1.0,3.0,88,0.00,,,0.00,Wunderground v.1.15,2013-02-01 10:15:00,
2013-02-01 20:20:00,84.0,79.7,29.71,ESE,109,2.0,2.0,87,0.00,,,0.00,Wunderground v.1.15,2013-02-01 10:20:00,
2013-02-01 20:25:00,84.1,79.8,29.72,ESE,108,1.0,3.0,87,0.00,,,0.00,Wunderground v.1.15,2013-02-01 10:25:00,
2013-02-01 20:30:00,83.8,79.5,29.72,ESE,109,0.0,0.0,87,0.00,,,0.00,Wunderground v.1.15,2013-02-01 10:30:00,
2013-02-01 20:35:00,83.6,79.7,29.72,ESE,109,0.0,1.0,88,0.00,,,0.00,Wunderground v.1.15,2013-02-01 10:35:00,
2013-02-01 20:40:00,83.4,79.5,29.72,ESE,109,0.0,0.0,88,0.00,,,0.00,Wunderground v.1.15,2013-02-01 10:40:00,
2013-02-01 20:45:00,83.2,79.6,29.72,ESE,108,0.0,1.0,89,0.00,,,0.00,Wunderground v.1.15,2013-02-01 10:45:00,
2013-02-01 20:50:00,82.8,79.2,29.73,ESE,109,0.0,0.0,89,0.00,,,0.00,Wunderground v.1.15,2013-02-01 10:50:00,
2013-02-01 20:55:00,82.6,79.4,29.73,ESE,108,0.0,1.0,90,0.00,,,0.00,Wunderground v.1.15,2013-02-01 10:55:00,
2013-02-01 21:00:00,82.4,79.5,29.73,ESE,109,0.0,0.0,91,0.00,,,0.00,Wunderground v.1.15,2013-02-01 11:00:00,
2013-02-01 21:05:00,82.2,79.3,29.73,ESE,109,0.0,0.0,91,0.00,,,0.00,Wunderground v.1.15,2013-02-01 11:05:00,
2013-02-01 21:10:00,82.1,79.2,29.72,ESE,109,0.0,0.0,91,0.00,,,0.00,Wunderground v.1.15,2013-02-01 11:10:00,
2013-02-01 21:15:00,82.0,79.4,29.73,ESE,108,0.0,0.0,92,0.00,,,0.00,Wunderground v.1.15,2013-02-01 11:15:00,
2013-02-01 21:20:00,81.9,79.3,29.73,ESE,109,0.0,1.0,92,0.00,,,0.00,Wunderground v.1.15,2013-02-01 11:20:00,
2013-02-01 21:25:00,81.9,79.7,29.73,ESE,109,0.0,1.0,93,0.00,,,0.00,Wunderground v.1.15,2013-02-01 11:25:00,
2013-02-01 21:30:00,81.7,79.5,29.73,ESE,109,0.0,0.0,93,0.00,,,0.00,Wunderground v.1.15,2013-02-01 11:30:00,
2013-02-01 21:35:00,81.7,79.5,29.73,ESE,108,0.0,0.0,93,0.00,,,0.00,Wunderground v.1.15,2013-02-01 11:35:00,
2013-02-01 21:40:00,81.7,79.8,29.73,ESE,108,0.0,0.0,94,0.00,,,0.00,Wunderground v.1.15,2013-02-01 11:40:00,
2013-02-01 21:45:00,81.6,79.7,29.73,ESE,108,0.0,0.0,94,0.00,,,0.00,Wunderground v.1.15,2013-02-01 11:45:00,
2013-02-01 21:50:00,81.6,79.7,29.73,ESE,109,0.0,0.0,94,0.00,,,0.00,Wunderground v.1.15,2013-02-01 11:50:00,
2013-02-01 21:55:00,81.5,79.6,29.73,ESE,108,0.0,1.0,94,0.00,,,0.00,Wunderground v.1.15,2013-02-01 11:55:00,
2013-02-01 22:00:00,81.3,79.4,29.73,ESE,108,0.0,0.0,94,0.00,,,0.00,Wunderground v.1.15,2013-02-01 12:00:00,
2013-02-01 22:05:00,81.3,79.4,29.73,ESE,109,0.0,1.0,94,0.00,,,0.00,Wunderground v.1.15,2013-02-01 12:05:00,
2013-02-01 22:10:00,81.3,79.4,29.73,ESE,113,0.0,-999.0,94,0.00,,,0.00,Wunderground v.1.15,2013-02-01 12:10:00,
2013-02-01 22:15:00,81.3,79.4,29.73,ESE,113,0.0,-999.0,94,0.00,,,0.00,Wunderground v.1.15,2013-02-01 12:15:00,
2013-02-01 22:20:00,81.3,79.4,29.73,ESE,113,0.0,-999.0,94,0.00,,,0.00,Wunderground v.1.15,2013-02-01 12:20:00,
2013-02-01 22:25:00,81.3,79.4,29.73,ESE,113,0.0,-999.0,94,0.00,,,0.00,Wunderground v.1.15,2013-02-01 12:25:00,
2013-02-01 22:30:00,81.3,79.4,29.73,ESE,113,0.0,-999.0,94,0.00,,,0.00,Wunderground v.1.15,2013-02-01 12:30:00,
2013-02-01 22:35:00,81.3,79.4,29.73,ESE,113,0.0,-999.0,94,0.00,,,0.00,Wunderground v.1.15,2013-02-01 12:35:00,
2013-02-01 22:40:00,81.3,79.4,29.73,ESE,113,0.0,-999.0,94,0.00,,,0.00,Wunderground v.1.15,2013-02-01 12:40:00,
2013-02-01 22:45:00,81.3,79.4,29.73,ESE,113,0.0,-999.0,94,0.00,,,0.00,Wunderground v.1.15,2013-02-01 12:45:00,
2013-02-01 22:50:00,81.3,79.4,29.73,ESE,113,0.0,-999.0,94,0.00,,,0.00,Wunderground v.1.15,2013-02-01 12:50:00,
2013-02-01 22:55:00,81.3,79.4,29.73,ESE,113,0.0,-999.0,94,0.00,,,0.00,Wunderground v.1.15,2013-02-01 12:55:00,
2013-02-01 23:00:00,81.2,79.6,29.71,ESE,113,0.0,-999.0,95,0.00,,,0.00,Wunderground v.1.15,2013-02-01 13:00:00,
2013-02-01 23:05:00,81.2,79.6,29.71,ESE,113,0.0,-999.0,95,0.00,,,0.00,Wunderground v.1.15,2013-02-01 13:05:00,
2013-02-01 23:10:00,81.2,79.6,29.71,ESE,113,0.0,-999.0,95,0.00,,,0.00,Wunderground v.1.15,2013-02-01 13:10:00,
2013-02-01 23:15:00,81.2,79.6,29.71,ESE,113,0.0,-999.0,95,0.00,,,0.00,Wunderground v.1.15,2013-02-01 13:15:00,
2013-02-01 23:20:00,81.2,79.6,29.71,ESE,113,0.0,-999.0,95,0.00,,,0.00,Wunderground v.1.15,2013-02-01 13:20:00,
2013-02-01 23:25:00,81.2,79.6,29.71,ESE,113,0.0,-999.0,95,0.00,,,0.00,Wunderground v.1.15,2013-02-01 13:25:00,
2013-02-01 23:30:00,81.2,79.6,29.71,ESE,113,0.0,-999.0,95,0.00,,,0.00,Wunderground v.1.15,2013-02-01 13:30:00,
2013-02-01 23:35:00,81.2,79.6,29.71,ESE,113,0.0,-999.0,95,0.00,,,0.00,Wunderground v.1.15,2013-02-01 13:35:00,
2013-02-01 23:40:00,81.2,79.6,29.71,ESE,113,0.0,-999.0,95,0.00,,,0.00,Wunderground v.1.15,2013-02-01 13:40:00,
2013-02-01 23:45:00,81.2,79.6,29.71,ESE,113,0.0,-999.0,95,0.00,,,0.00,Wunderground v.1.15,2013-02-01 13:45:00,
2013-02-01 23:50:00,81.2,79.6,29.71,ESE,113,0.0,-999.0,95,0.00,,,0.00,Wunderground v.1.15,2013-02-01 13:50:00,
2013-02-01 23:55:00,81.2,79.6,29.71,ESE,113,0.0,-999.0,95,0.00,,,0.00,Wunderground v.1.15,2013-02-01 13:55:00,